Regional Weather Roundup
Issued by NWS

Home | Current Version | Previous Version | Graphics & Text | Print | Product List | Glossary On
Versions: 1 2 3 4 5 6 7 8 9 10 11 12 13 14 15 16 17 18 19 20 21 22 23 24 25 26 27 28 29 30 31 32 33 34 35 36 37 38 39 40 41 42 43 44 45 46 47 48 49 50
000
ASUS43 KBIS 131510
RWRND

NORTH DAKOTA REGIONAL WEATHER ROUNDUP
NATIONAL WEATHER SERVICE BISMARCK ND
900 AM CST WED DEC 13 2017

NOTE: "FAIR" INDICATES FEW OR NO CLOUDS BELOW 12,000 FEET WITH NO
SIGNIFICANT WEATHER AND/OR OBSTRUCTIONS TO VISIBILITY.


NDZ001>003-009>011-017-131600-
NORTHWEST NORTH DAKOTA

CITY           SKY/WX    TMP DP  RH WIND       PRES   REMARKS
WILLISTON      CLOUDY    33  26  75 NW22G30   29.99S
MINOT          CLOUDY    35  27  72 W23       29.88R
MINOT AFB      CLOUDY    34  27  77 NW18G24   29.87R
$$

NDZ018>021-031>035-040>046-131600-
SOUTHWEST NORTH DAKOTA

CITY           SKY/WX    TMP DP  RH WIND       PRES   REMARKS
BISMARCK       CLOUDY    35  30  82 NW18G28   29.87R
DICKINSON      PTCLDY    31  26  82 NW23      29.94R WCI  18
GARRISON         N/A     33  28  81 NW20G26   29.88R
HETTINGER ARPT CLEAR     31  24  75 NW24G32   29.97R WCI  17
$$

NDZ004>008-012>016-024-026-027-054-131600-
NORTHEAST NORTH DAKOTA

CITY           SKY/WX    TMP DP  RH WIND       PRES   REMARKS
GRAND FORKS    CLOUDY    28  24  85 N25G38    29.73R WCI  13
GRND FRKS AFB  CLOUDY    29  24  82 N21G28    29.73R WCI  15
DEVILS LAKE    CLOUDY    31  27  85 NW14      29.78R
$$

NDZ022-023-025-028>030-036>039-047>053-131600-
SOUTHEAST NORTH DAKOTA

CITY           SKY/WX    TMP DP  RH WIND       PRES   REMARKS
FARGO          CLOUDY    29  23  78 N31G46    29.72R WCI  13
JAMESTOWN      CLOUDY    35  30  82 NW24G30   29.75R
$$





USA.gov is the U.S. government's official web portal to all federal, state and local government web resources and services.